Time,TemperatureF,DewpointF,PressureIn,WindDirection,WindDirectionDegrees,WindSpeedMPH,WindSpeedGustMPH,Humidity,HourlyPrecipIn,Conditions,Clouds,dailyrainin,SolarRadiationWatts/m^2,SoftwareType,DateUTC
2014-07-24 00:08:00,64.5,40.0,29.87,North,5,6.0,10.0,40,0.00,,,0.00,0,weatherlink.com 1.10,2014-07-24 07:08:00,
2014-07-24 00:23:00,64.1,40.0,29.87,North,5,8.0,10.0,41,0.00,,,0.00,0,weatherlink.com 1.10,2014-07-24 07:23:00,
2014-07-24 00:38:00,64.3,40.0,29.87,North,5,9.0,15.0,41,0.00,,,0.00,0,weatherlink.com 1.10,2014-07-24 07:38:00,
2014-07-24 00:53:00,64.2,39.0,29.87,North,5,11.0,15.0,40,0.00,,,0.00,0,weatherlink.com 1.10,2014-07-24 07:53:00,
2014-07-24 01:08:00,64.1,39.0,29.87,North,5,8.0,17.0,40,0.00,,,0.00,0,weatherlink.com 1.10,2014-07-24 08:08:00,
2014-07-24 01:23:00,64.0,39.0,29.87,North,5,13.0,16.0,40,0.00,,,0.00,0,weatherlink.com 1.10,2014-07-24 08:23:00,
2014-07-24 01:38:00,64.2,39.0,29.86,North,5,13.0,16.0,40,0.00,,,0.00,0,weatherlink.com 1.10,2014-07-24 08:38:00,
2014-07-24 01:53:00,63.8,39.0,29.87,North,5,7.0,16.0,40,0.00,,,0.00,0,weatherlink.com 1.10,2014-07-24 08:53:00,
2014-07-24 02:08:00,62.7,40.0,29.87,North,5,6.0,12.0,44,0.00,,,0.00,0,weatherlink.com 1.10,2014-07-24 09:08:00,
2014-07-24 02:24:00,62.5,38.0,29.87,North,5,8.0,12.0,41,0.00,,,0.00,0,weatherlink.com 1.10,2014-07-24 09:24:00,
2014-07-24 02:39:00,61.1,39.0,29.87,North,5,5.0,9.0,44,0.00,,,0.00,0,weatherlink.com 1.10,2014-07-24 09:39:00,
2014-07-24 02:54:00,59.2,39.0,29.87,North,5,7.0,9.0,48,0.00,,,0.00,0,weatherlink.com 1.10,2014-07-24 09:54:00,
2014-07-24 03:09:00,60.2,39.0,29.87,North,5,6.0,9.0,45,0.00,,,0.00,0,weatherlink.com 1.10,2014-07-24 10:09:00,
2014-07-24 03:24:00,58.0,39.0,29.87,North,5,5.0,8.0,49,0.00,,,0.00,0,weatherlink.com 1.10,2014-07-24 10:24:00,
2014-07-24 03:39:00,58.0,39.0,29.87,North,5,7.0,9.0,49,0.00,,,0.00,0,weatherlink.com 1.10,2014-07-24 10:39:00,
2014-07-24 03:54:00,58.2,39.0,29.87,North,5,8.0,9.0,49,0.00,,,0.00,0,weatherlink.com 1.10,2014-07-24 10:54:00,
2014-07-24 04:09:00,58.0,39.0,29.87,North,5,9.0,12.0,49,0.00,,,0.00,0,weatherlink.com 1.10,2014-07-24 11:09:00,
2014-07-24 04:24:00,57.9,39.0,29.87,North,5,8.0,10.0,49,0.00,,,0.00,0,weatherlink.com 1.10,2014-07-24 11:24:00,
2014-07-24 04:39:00,57.6,38.0,29.87,North,5,8.0,11.0,49,0.00,,,0.00,0,weatherlink.com 1.10,2014-07-24 11:39:00,
2014-07-24 04:54:00,57.7,38.0,29.87,North,5,5.0,11.0,49,0.00,,,0.00,0,weatherlink.com 1.10,2014-07-24 11:54:00,
2014-07-24 05:09:00,57.5,38.0,29.88,North,5,7.0,10.0,49,0.00,,,0.00,0,weatherlink.com 1.10,2014-07-24 12:09:00,
2014-07-24 05:24:00,57.5,38.0,29.88,North,5,3.0,8.0,48,0.00,,,0.00,0,weatherlink.com 1.10,2014-07-24 12:24:00,
2014-07-24 05:39:00,57.3,39.0,29.89,North,5,0.0,2.0,50,0.00,,,0.00,0,weatherlink.com 1.10,2014-07-24 12:39:00,
2014-07-24 05:54:00,56.9,38.0,29.89,North,5,0.0,4.0,50,0.00,,,0.00,7,weatherlink.com 1.10,2014-07-24 12:54:00,
2014-07-24 06:09:00,55.5,38.0,29.89,North,5,6.0,7.0,53,0.00,,,0.00,12,weatherlink.com 1.10,2014-07-24 13:09:00,
2014-07-24 06:24:00,54.5,39.0,29.90,North,5,4.0,7.0,56,0.00,,,0.00,18,weatherlink.com 1.10,2014-07-24 13:24:00,
2014-07-24 06:39:00,54.4,39.0,29.90,North,5,2.0,5.0,56,0.00,,,0.00,60,weatherlink.com 1.10,2014-07-24 13:39:00,
2014-07-24 06:54:00,55.9,38.0,29.90,North,5,0.0,1.0,51,0.00,,,0.00,90,weatherlink.com 1.10,2014-07-24 13:54:00,
2014-07-24 07:09:00,57.2,40.0,29.91,North,5,0.0,2.0,53,0.00,,,0.00,167,weatherlink.com 1.10,2014-07-24 14:09:00,
2014-07-24 07:24:00,57.2,41.0,29.92,North,5,0.0,2.0,56,0.00,,,0.00,225,weatherlink.com 1.10,2014-07-24 14:24:00,
2014-07-24 07:39:00,57.7,40.0,29.93,North,5,1.0,2.0,53,0.00,,,0.00,276,weatherlink.com 1.10,2014-07-24 14:39:00,
2014-07-24 07:54:00,57.8,40.0,29.93,North,5,0.0,3.0,51,0.00,,,0.00,329,weatherlink.com 1.10,2014-07-24 14:54:00,
2014-07-24 08:10:00,59.0,40.0,29.93,North,5,0.0,4.0,50,0.00,,,0.00,381,weatherlink.com 1.10,2014-07-24 15:10:00,
2014-07-24 08:25:00,60.1,40.0,29.93,North,5,0.0,3.0,47,0.00,,,0.00,429,weatherlink.com 1.10,2014-07-24 15:25:00,
2014-07-24 08:40:00,61.6,40.0,29.93,North,5,1.0,3.0,45,0.00,,,0.00,480,weatherlink.com 1.10,2014-07-24 15:40:00,
2014-07-24 08:55:00,63.0,40.0,29.93,North,5,0.0,4.0,43,0.00,,,0.00,527,weatherlink.com 1.10,2014-07-24 15:55:00,
2014-07-24 09:10:00,64.3,41.0,29.93,North,5,0.0,4.0,42,0.00,,,0.00,575,weatherlink.com 1.10,2014-07-24 16:10:00,
2014-07-24 09:25:00,67.1,42.0,29.93,North,5,1.0,6.0,40,0.00,,,0.00,621,weatherlink.com 1.10,2014-07-24 16:25:00,
2014-07-24 09:40:00,69.6,41.0,29.92,North,5,2.0,4.0,36,0.00,,,0.00,666,weatherlink.com 1.10,2014-07-24 16:40:00,
2014-07-24 09:55:00,70.8,42.0,29.92,North,5,3.0,9.0,36,0.00,,,0.00,707,weatherlink.com 1.10,2014-07-24 16:55:00,
2014-07-24 10:10:00,71.2,41.0,29.92,North,5,4.0,4.0,34,0.00,,,0.00,745,weatherlink.com 1.10,2014-07-24 17:10:00,
2014-07-24 10:25:00,72.0,42.0,29.91,North,5,4.0,11.0,34,0.00,,,0.00,780,weatherlink.com 1.10,2014-07-24 17:25:00,
2014-07-24 10:40:00,73.6,43.0,29.91,North,5,5.0,8.0,34,0.00,,,0.00,817,weatherlink.com 1.10,2014-07-24 17:40:00,
2014-07-24 10:55:00,74.3,43.0,29.91,North,5,7.0,9.0,32,0.00,,,0.00,851,weatherlink.com 1.10,2014-07-24 17:55:00,
2014-07-24 11:10:00,74.6,42.0,29.91,North,5,7.0,11.0,31,0.00,,,0.00,882,weatherlink.com 1.10,2014-07-24 18:10:00,
2014-07-24 11:25:00,75.9,42.0,29.90,North,5,4.0,9.0,30,0.00,,,0.00,905,weatherlink.com 1.10,2014-07-24 18:25:00,
2014-07-24 11:41:00,76.5,42.0,29.89,North,5,3.0,10.0,29,0.00,,,0.00,930,weatherlink.com 1.10,2014-07-24 18:41:00,
2014-07-24 12:11:00,77.8,40.0,29.88,North,5,6.0,11.0,26,0.00,,,0.00,967,weatherlink.com 1.10,2014-07-24 19:11:00,
2014-07-24 12:26:00,78.3,41.0,29.87,North,5,7.0,10.0,26,0.00,,,0.00,979,weatherlink.com 1.10,2014-07-24 19:26:00,
2014-07-24 12:41:00,79.1,40.0,29.87,North,5,8.0,10.0,25,0.00,,,0.00,986,weatherlink.com 1.10,2014-07-24 19:41:00,
2014-07-24 12:56:00,79.8,39.0,29.86,North,5,3.0,12.0,23,0.00,,,0.00,993,weatherlink.com 1.10,2014-07-24 19:56:00,
2014-07-24 13:11:00,80.6,41.0,29.85,North,5,1.0,9.0,24,0.00,,,0.00,995,weatherlink.com 1.10,2014-07-24 20:11:00,